CW8285 Weather Reports


time (UTC)temp
C
wind
direction
speed
KPH
gust
KPH
rain 1hr
cm
rain 24hr
cm
rain mn
cm
humidity
%
barometer
mb
20260503184755 16 274 3.2 4.8 0.00 0.00 0.00 33 1020.3
20260503184252 16 283 4.8 4.8 0.00 0.00 0.00 30 1020.5
20260503183748 16 287 4.8 4.8 0.00 0.00 0.00 28 1020.5
20260503183246 16 294 1.6 3.2 0.00 0.00 0.00 32 1020.4
20260503182743 16 277 1.6 4.8 0.00 0.00 0.00 27 1020.5
20260503182242 16 293 1.6 3.2 0.00 0.00 0.00 32 1020.5
20260503181738 15 291 3.2 8.0 0.00 0.00 0.00 32 1020.7
20260503181235 15 288 4.8 4.8 0.00 0.00 0.00 33 1020.7
20260503180732 15 289 4.8 4.8 0.00 0.00 0.00 28 1020.8
20260503180230 15 248 3.2 4.8 0.00 0.00 0.00 28 1021.0
20260503175726 15 292 1.6 4.8 0.00 0.00 0.00 35 1021.0
20260503175224 15 289 3.2 8.0 0.00 0.00 0.00 36 1020.9
20260503174720 15 295 1.6 8.0 0.00 0.00 0.00 29 1020.9
20260503174219 15 295 3.2 4.8 0.00 0.00 0.00 32 1021.1
20260503173713 14 285 4.8 4.8 0.00 0.00 0.00 34 1021.1
20260503173209 14 296 3.2 8.0 0.00 0.00 0.00 31 1021.1
20260503172706 14 274 3.2 4.8 0.00 0.00 0.00 33 1021.1
20260503172203 13 286 4.8 4.8 0.00 0.00 0.00 34 1021.2
20260503171700 13 291 4.8 8.0 0.00 0.00 0.00 31 1021.2
20260503171157 13 279 4.8 8.0 0.00 0.00 0.00 34 1021.3
20260503170654 13 274 4.8 4.8 0.00 0.00 0.00 33 1021.1
20260503170151 13 276 3.2 4.8 0.00 0.00 0.00 33 1021.3
20260503160112 11 286 3.2 4.8 0.00 0.00 0.00 43 1022.3
20260503150542 10 300 3.2 4.8 0.00 0.00 0.00 46 1022.1
20260503130932 5 294 1.6 1.6 0.00 0.00 0.00 70 1021.9
20260503130430 5 289 1.6 3.2 0.00 0.00 0.00 67 1021.9
20260503110331 0 296 0.0 0.0 0.00 0.00 0.00 92 1020.9
20260503100257 1 299 0.0 1.6 0.00 0.00 0.00 88 1019.9
20260503090223 2 296 0.0 0.0 0.00 0.00 0.00 80 1019.5
20260503081150 3 286 0.0 1.6 0.00 0.00 0.00 74 1019.2
20260503080646 3 290 0.0 3.2 0.00 0.00 0.00 74 1019.1
20260503080143 3 289 0.0 1.6 0.00 0.00 0.00 76 1019.0
20260503072620 3 295 0.0 3.2 0.00 0.00 0.00 76 1018.6
20260503072117 3 290 0.0 1.6 0.00 0.00 0.00 76 1018.7
20260503071614 3 290 0.0 1.6 0.00 0.00 0.00 76 1018.6
20260503071111 3 295 0.0 1.6 0.00 0.00 0.00 77 1018.6
20260503070608 3 294 0.0 0.0 0.00 0.00 0.00 80 1018.4
20260503070106 3 293 0.0 1.6 0.00 0.00 0.00 81 1018.5
20260503055026 1 295 0.0 0.0 0.00 0.00 0.00 88 1018.7
20260503054522 1 294 0.0 0.0 0.00 0.00 0.00 87 1018.6
20260503054020 1 305 0.0 0.0 0.00 0.00 0.00 88 1018.5
20260503053517 1 295 0.0 0.0 0.00 0.00 0.00 87 1018.5
20260503053015 1 295 0.0 1.6 0.00 0.00 0.00 86 1018.6
20260503052511 1 293 0.0 0.0 0.00 0.00 0.00 86 1018.7
20260503052008 2 295 0.0 0.0 0.00 0.00 0.00 86 1018.6
20260503051503 2 295 0.0 1.6 0.00 0.00 0.00 86 1018.6
20260503051001 2 306 1.6 1.6 0.00 0.00 0.00 85 1018.5
20260503050456 2 299 0.0 1.6 0.00 0.00 0.00 85 1018.5
20260503045954 2 295 0.0 0.0 0.00 0.00 0.00 83 1018.9
20260503045451 2 294 0.0 0.0 0.00 0.00 0.00 83 1018.7
20260503044948 2 296 0.0 0.0 0.00 0.00 0.00 82 1018.6
20260503044445 2 294 0.0 0.0 0.00 0.00 0.00 83 1018.5
20260503043943 2 295 0.0 1.6 0.00 0.00 0.00 82 1018.4
20260503043438 2 292 0.0 0.0 0.00 0.00 0.00 81 1018.7
20260503042935 2 295 0.0 0.0 0.00 0.00 0.00 81 1018.5
20260503042432 2 297 0.0 0.0 0.00 0.00 0.00 80 1018.5
20260503041929 2 302 0.0 1.6 0.00 0.00 0.00 80 1018.3
20260503041425 3 292 0.0 0.0 0.00 0.00 0.00 78 1018.4
20260503040923 3 292 0.0 0.0 0.00 0.00 0.00 78 1018.2
20260503040420 3 303 0.0 0.0 0.00 0.00 0.00 78 1018.3
20260503035917 3 300 0.0 0.0 0.00 0.00 0.00 77 1018.0
20260503035414 3 297 0.0 0.0 0.00 0.00 0.00 76 1018.0
20260503034911 3 295 0.0 0.0 0.00 0.00 0.00 76 1017.9
20260503034409 3 307 0.0 1.6 0.00 0.00 0.00 76 1018.0
20260503033906 3 295 0.0 0.0 0.00 0.00 0.00 75 1017.9
20260503033403 3 300 0.0 0.0 0.00 0.00 0.00 74 1017.8
20260503032901 4 305 0.0 1.6 0.00 0.00 0.00 74 1017.7
20260503032400 4 300 0.0 1.6 0.00 0.00 0.00 74 1017.7
20260503031857 4 296 0.0 0.0 0.00 0.00 0.00 71 1017.4
20260503031355 4 320 1.6 1.6 0.00 0.00 0.00 74 1017.8
20260503030850 4 303 1.6 1.6 0.00 0.00 0.00 75 1017.7
20260503030348 4 298 1.6 1.6 0.00 0.00 0.00 75 1017.8
20260503025844 4 293 0.0 0.0 0.00 0.00 0.00 73 1017.7
20260503025342 4 297 0.0 1.6 0.00 0.00 0.00 73 1017.7
20260503024839 4 296 0.0 1.6 0.00 0.00 0.00 73 1017.8
20260503024335 4 297 0.0 1.6 0.00 0.00 0.00 75 1017.7
20260503023832 4 297 0.0 1.6 0.00 0.00 0.00 74 1017.8
20260503023329 4 293 0.0 0.0 0.00 0.00 0.00 72 1017.7
20260503022826 5 293 0.0 0.0 0.00 0.00 0.00 73 1017.4
20260503022326 5 298 0.0 0.0 0.00 0.00 0.00 70 1017.7
20260503021822 5 294 1.6 1.6 0.00 0.00 0.00 70 1017.4
20260503021319 5 294 0.0 0.0 0.00 0.00 0.00 69 1017.3
20260503020816 5 298 0.0 0.0 0.00 0.00 0.00 67 1017.4
20260503020314 5 295 0.0 0.0 0.00 0.00 0.00 68 1017.2
20260503015810 5 294 0.0 0.0 0.00 0.00 0.00 65 1017.2
20260503015308 5 296 0.0 0.0 0.00 0.00 0.00 65 1017.1
20260503014803 6 303 0.0 0.0 0.00 0.00 0.00 64 1017.1
20260503014301 6 301 0.0 1.6 0.00 0.00 0.00 63 1017.0
20260503013758 6 301 0.0 1.6 0.00 0.00 0.00 64 1017.2
20260503013255 6 299 0.0 1.6 0.00 0.00 0.00 63 1017.0
20260503012752 7 313 1.6 1.6 0.00 0.00 0.00 59 1017.1
20260503012250 7 286 1.6 3.2 0.00 0.00 0.00 53 1016.9
20260503011746 7 294 0.0 0.0 0.00 0.00 0.00 55 1016.8
20260503011243 7 296 0.0 1.6 0.00 0.00 0.00 56 1016.8
20260503010739 7 295 0.0 0.0 0.00 0.00 0.00 54 1016.6
20260503010236 7 294 1.6 3.2 0.00 0.00 0.00 51 1016.6
20260503005734 7 299 0.0 0.0 0.00 0.00 0.00 52 1016.5
20260503005231 8 303 0.0 0.0 0.00 0.00 0.00 54 1016.6
20260503004727 8 295 0.0 3.2 0.00 0.00 0.00 51 1016.1
20260503004226 8 296 0.0 1.6 0.00 0.00 0.00 51 1016.3
20260503003722 8 283 1.6 1.6 0.00 0.00 0.00 52 1016.3
20260503003219 8 297 0.0 1.6 0.00 0.00 0.00 52 1016.3
20260503002716 8 293 1.6 3.2 0.00 0.00 0.00 51 1016.0
20260503002213 8 297 1.6 1.6 0.00 0.00 0.00 51 1015.9
20260503001709 8 294 0.0 0.0 0.00 0.00 0.00 48 1015.9
20260503001205 9 304 1.6 3.2 0.00 0.00 0.00 45 1015.7
20260503000704 9 294 1.6 3.2 0.00 0.00 0.00 45 1015.5
20260503000201 9 300 1.6 1.6 0.00 0.00 0.00 48 1015.7
20260502235657 9 296 0.0 3.2 0.00 0.00 0.00 47 1015.7
20260502235155 10 307 0.0 0.0 0.00 0.00 0.00 48 1015.7
20260502234651 10 289 0.0 8.0 0.00 0.00 0.00 43 1015.5
20260502234149 10 281 3.2 4.8 0.00 0.00 0.00 42 1015.3
20260502233644 10 296 1.6 4.8 0.00 0.00 0.00 42 1015.3
20260502233141 10 299 0.0 3.2 0.00 0.00 0.00 41 1015.5
20260502232637 11 290 6.4 8.0 0.00 0.00 0.00 41 1015.4
20260502232135 11 293 3.2 8.0 0.00 0.00 0.00 39 1015.3
20260502231631 11 292 0.0 1.6 0.00 0.00 0.00 45 1015.4
20260502231129 11 291 0.0 3.2 0.00 0.00 0.00 42 1015.2
20260502230627 11 301 1.6 4.8 0.00 0.00 0.00 41 1015.0
20260502230126 12 312 1.6 1.6 0.00 0.00 0.00 44 1015.0
20260502225620 12 286 0.0 3.2 0.00 0.00 0.00 37 1015.1
20260502225118 12 285 0.0 3.2 0.00 0.00 0.00 36 1015.1
20260502224614 12 283 0.0 1.6 0.00 0.00 0.00 43 1015.1
20260502224111 12 297 0.0 1.6 0.00 0.00 0.00 42 1015.2
20260502223609 12 290 0.0 3.2 0.00 0.00 0.00 44 1015.1
20260502223107 12 279 1.6 4.8 0.00 0.00 0.00 38 1015.0
20260502222604 12 293 0.0 1.6 0.00 0.00 0.00 41 1015.2
20260502222100 12 298 0.0 3.2 0.00 0.00 0.00 39 1015.0
20260502221556 12 290 1.6 4.8 0.00 0.00 0.00 37 1015.0
20260502221054 13 295 3.2 4.8 0.00 0.00 0.00 35 1015.1
20260502220549 14 281 3.2 4.8 0.00 0.00 0.00 35 1015.2
20260502220046 14 302 0.0 1.6 0.00 0.00 0.00 34 1014.6
20260502215543 15 308 4.8 4.8 0.00 0.00 0.00 36 1014.6
20260502215040 15 283 1.6 1.6 0.00 0.00 0.00 34 1014.6
20260502214537 13 288 1.6 8.0 0.00 0.00 0.00 37 1014.5
20260502214035 15 256 8.0 11.3 0.00 0.00 0.00 33 1014.4
20260502213531 15 266 3.2 3.2 0.00 0.00 0.00 33 1014.4
20260502213029 14 291 1.6 9.7 0.00 0.00 0.00 34 1014.2
20260502212528 15 303 4.8 8.0 0.00 0.00 0.00 33 1014.2
20260502212025 15 244 6.4 8.0 0.00 0.00 0.00 32 1014.4
20260502211520 15 284 1.6 4.8 0.00 0.00 0.00 33 1014.2
20260502211018 15 283 3.2 4.8 0.00 0.00 0.00 31 1014.3
20260502210515 14 288 1.6 9.7 0.00 0.00 0.00 31 1014.3
20260502210012 15 287 3.2 4.8 0.00 0.00 0.00 36 1014.0
20260502205508 15 298 1.6 3.2 0.00 0.00 0.00 32 1013.8
20260502205005 15 298 0.0 3.2 0.00 0.00 0.00 36 1014.1
20260502204502 15 292 0.0 1.6 0.00 0.00 0.00 34 1013.9
20260502204000 13 287 1.6 3.2 0.00 0.00 0.00 36 1014.0
20260502203457 13 310 1.6 4.8 0.00 0.00 0.00 37 1014.1
20260502202953 12 290 0.0 0.0 0.00 0.00 0.00 37 1014.2
20260502202450 13 289 3.2 3.2 0.00 0.00 0.00 37 1014.1
20260502201948 16 281 3.2 3.2 0.00 0.00 0.00 33 1014.1
20260502201444 16 289 1.6 4.8 0.00 0.00 0.00 33 1014.0
20260502200941 16 297 1.6 9.7 0.00 0.00 0.00 33 1014.1
20260502200437 16 294 1.6 3.2 0.00 0.00 0.00 37 1014.0
20260502195934 15 282 3.2 3.2 0.00 0.00 0.00 34 1014.1
20260502195431 16 289 4.8 4.8 0.00 0.00 0.00 31 1014.2
20260502194928 15 289 1.6 4.8 0.00 0.00 0.00 34 1014.1
20260502194425 15 285 1.6 3.2 0.00 0.00 0.00 39 1014.2
20260502193920 14 249 3.2 4.8 0.00 0.00 0.00 36 1014.2
20260502193418 14 289 1.6 4.8 0.00 0.00 0.00 35 1014.3
20260502192913 13 281 4.8 8.0 0.00 0.00 0.00 37 1014.1
20260502192410 13 279 1.6 3.2 0.00 0.00 0.00 40 1014.5
20260502191908 12 290 1.6 3.2 0.00 0.00 0.00 38 1014.6
20260502191405 12 287 0.0 3.2 0.00 0.00 0.00 41 1014.6
20260502190903 12 284 1.6 3.2 0.00 0.00 0.00 38 1014.7
20260502190400 12 285 1.6 1.6 0.00 0.00 0.00 40 1014.6
20260502185855 12 289 1.6 1.6 0.00 0.00 0.00 43 1014.7
20260502185351 12 288 0.0 1.6 0.00 0.00 0.00 41 1014.7